Location: Borbetomagus
(49.6328°N, 8.3592°E)
Time: 06:58:03
(UTC+00:00)

ATLAS 3B R/B - Pass Details

Date: 19 May 2025
Orbit: 935 x 1258 km, 63.8° (Epoch: 22 June)

Event Time Altitude Azimuth Distance (km) Brightness Sun altitude
Exits shadow 23:17:18 20° 224° (SW) 2,455 4.2 -20.4°
Maximum altitude 23:22:56 85° 311° (NW) 1,231 3.0 -20.4°
Drops below altitude 10° 23:30:51 10° 42° (NE) 3,241 5.9 -20.4°
Sets 23:33:41 0° 43° (NE) 4,219 6.6 -20.3°
